Tracking 18850 objects as of 22-Nov-2017
HD Live streaming from Space Station
objects crossing your sky now

METEOR 2-8

Track METEOR 2-8 now!
10-day predictions
METEOR 2-8 is classified as:


NORAD ID: 13113
Int'l Code: 1982-025A
Perigee: 938.4 km
Apogee: 965.7 km
Inclination: 82.5 °
Period: 103.9 minutes
Semi major axis: 7323 km
RCS: 4.8522 m2 (large)
Launch date: March 25, 1982
Source: Commonwealth of Independent States (former USSR) (CIS)
Launch site: PLESETSK MISSILE AND SPACE COMPLEX (PKMTR)
aabbcc
Your satellite tracking list
Your tracking list is empty




NASA's NSSDC Master Catalog

Two Line Element Set (TLE):
1 13113U 82025A   17325.23963941  .00000043  00000-0  24512-4 0  9996
2 13113  82.5408  72.2117 0018640  43.0154  18.0818 13.85374338802533
Source of the keplerian elements: AFSPC